Regional Weather Roundup
Issued by NWS Midland/Odessa, TX

Skip options and go directly to product.
Home | Oldest Version | Previous Version | Current Version | All | Text Only | Save Text | Print | Product List | Glossary On

Skip product version selection by date and time.   
905
ASUS44 KMAF 312101
RWRMAF
MIDLAND AREA WEATHER ROUNDUP
NATIONAL WEATHER SERVICE MIDLAND TX
400 PM CDT MON AUG 31 2015

...IN SOUTHWEST TEXAS AND SOUTHEAST NEW MEXICO...

CITY           SKY/WX    TMP DP  RH WIND       PRES   REMARKS
ALPINE         FAIR      91  39  15 NE9       30.14F
ANDREWS        FAIR      90  51  26 S7G18     30.03F
ARTESIA        FAIR      93  50  22 SE13G21   30.00F
BIG SPRING     FAIR      90  55  29 SE9       30.02F
CARLSBAD       FAIR      97  48  18 SE9G17    29.98F
DRYDEN           N/A     96  58  27 SW13G23   29.95F
FORT STOCKTON  FAIR      95  46  18 E10       29.99F
GUAD PASS      FAIR      91  48  22 S13       30.17F
HOBBS          SUNNY     90  43  19 SE9G20    30.06F
MARFA          FAIR      90  39  17 NE14      30.13F
MIDLAND AIRPK  FAIR      93  51  24 SW7G20    30.02F
MIDLAND INTL   FAIR      92  53  26 SE12      30.00F
ODESSA         FAIR      92  50  23 S9        30.01F
PECOS          FAIR      95  43  16 CALM      29.97F
PRESIDIO       NOT AVBL
SEMINOLE       FAIR      92  47  21 S8        30.04F
SNYDER         FAIR      92  56  29 SE7       30.01F
WINK           FAIR      94  47  20 SE12      29.97F
$$
...OTHER STATIONS IN TEXAS...

CITY           SKY/WX    TMP DP  RH WIND       PRES   REMARKS
ABILENE        FAIR      94  59  31 SE12G20   29.98F
AMARILLO       FAIR      89  50  26 S18G29    30.03F
AUSTIN         PTSUNNY   94  60  32 VRB5      29.94F
BROWNSVILLE    TSTM      79  77  94 E14       29.94F
CORPUS CHRISTI TSTM      81  73  78 S6        29.96F
DALLAS FTW     FAIR      94  60  32 S6        29.95F
DEL RIO        FAIR      96  58  27 E7G20     29.91F
EL PASO        FAIR      95  41  15 S8        30.02F
HOUSTON INT    CLOUDY    87  72  60 E10       30.00F
LUBBOCK        FAIR      91  49  23 S15G22    30.03F
SAN ANGELO     FAIR      94  57  28 VRB6      29.97F
SAN ANTONIO    FAIR      94  60  32 SE9       29.96F
WACO           FAIR      93  63  36 SW7       29.96F
WICHITA FALLS  NOT AVBL
$$
...OTHER LOCATIONS IN NEW MEXICO...

CITY           SKY/WX    TMP DP  RH WIND       PRES   REMARKS
ALAMAGORDO     FAIR      93  45  18 NW3       30.04F
ALBUQUERQUE    FAIR      89  44  20 VRB3      30.11F
CANNON AFB     FAIR      93  49  22 SW12G21   30.03F
CLOVIS         FAIR      91  48  22 S23       30.04F
HOLLOMAN AFB   FAIR      94  45  18 VRB6      30.01F
ROSWELL        FAIR      95  48  20 VRB7G22   30.00F
RUIDOSO        FAIR      81  43  26 MISG      30.25F
SANTA FE       PTSUNNY   87  43  21 NW14G24   30.17F
TRUTH OR CONSE FAIR      84  45  25 NW15      30.11F
TUCUMCARI      FAIR      96  49  20 S10       29.97F
$$

USA.gov is the U.S. government's official web portal to all federal, state and local government web resources and services.